Location: Bothwell
(42.3833°S, 147.0000°E)
Time: 22:24:53
(UTC+11:00)

UWE-3 - Pass Details

Date: 03 October 2022
Orbit: 582 x 675 km, 97.7° (Epoch: 03 December)

Event Time Altitude Azimuth Distance (km) Brightness Sun altitude
Exits shadow 03:55:19 18° 201° (SSW) 1,626 ? -29.4°
Drops below altitude 10° 03:56:35 10° 198° (SSW) 2,124 ? -29.2°
Sets 03:58:53 0° 195° (SSW) 3,055 ? -28.8°
